When you browse on this site, cookies collect data to enhance your experience and personalize the content and advertising you see.
Visit our Privacy Policy to learn more. By continuing to use the site, you agree to this use of cookies and data.
  • In Österreich
  • Länderverzeichnis
  • Für 7 Tage
  • Wassertemperatur
  • Wetterkarte
  • News
  • Widgets
  • user-avatar
    Anmelden

    Stündliche Wetter Zatysivka

    Heute, 26 Januar, Sonntag

    Zeit Temperatur Niederschläge Wind Luftdruck Luftfeuchtigkeit
    00:00 -1°C° 0 mm 2 m/S 756 mmHg 88%
    01:00 -1°C° 0 mm 2 m/S 756 mmHg 90%
    02:00 +1°C° 0 mm 1 m/S 756 mmHg 92%
    03:00 +1°C° 0 mm 1 m/S 756 mmHg 94%
    04:00 -2°C° 0 mm 2 m/S 755 mmHg 96%
    05:00 -2°C° 0 mm 2 m/S 755 mmHg 97%
    06:00 -1°C° 0 mm 3 m/S 755 mmHg 97%
    07:00 -1°C° 0 mm 2 m/S 755 mmHg 96%
    08:00 +1°C° 0 mm 2 m/S 756 mmHg 94%
    09:00 +1°C° 0 mm 2 m/S 756 mmHg 95%
    10:00 +1°C° 0 mm 2 m/S 756 mmHg 97%
    11:00 +2°C° 0 mm 2 m/S 756 mmHg 96%
    12:00 +4°C° 0 mm 2 m/S 756 mmHg 93%
    13:00 +4°C° 0 mm 3 m/S 756 mmHg 92%
    14:00 +4°C° 0 mm 3 m/S 755 mmHg 92%
    15:00 +5°C° 0 mm 2 m/S 755 mmHg 93%
    16:00 +4°C° 0 mm 2 m/S 755 mmHg 96%
    17:00 +5°C° 0 mm 1 m/S 755 mmHg 97%
    18:00 +5°C° 0 mm 1 m/S 755 mmHg 98%
    19:00 +4°C° 0.1 mm 2 m/S 754 mmHg 100%
    20:00 +4°C° 0.2 mm 2 m/S 754 mmHg 100%
    21:00 +4°C° 0.1 mm 2 m/S 754 mmHg 99%
    22:00 +3°C° 0 mm 2 m/S 754 mmHg 99%
    23:00 +5°C° 0 mm 1 m/S 754 mmHg 99%

    Morgen, 27 Januar, Montag

    Zeit Temperatur Niederschläge Wind Luftdruck Luftfeuchtigkeit
    00:00 +4°C° 0 mm 2 m/S 754 mmHg 99%
    01:00 +5°C° 0 mm 1 m/S 754 mmHg 100%
    02:00 +4°C° 0.1 mm 2 m/S 753 mmHg 100%
    03:00 +4°C° 0.7 mm 2 m/S 753 mmHg 100%
    04:00 +4°C° 0.1 mm 2 m/S 752 mmHg 100%
    05:00 +4°C° 0 mm 2 m/S 752 mmHg 100%
    06:00 +5°C° 0 mm 1 m/S 752 mmHg 99%
    07:00 +4°C° 0.1 mm 2 m/S 752 mmHg 100%
    08:00 +5°C° 0 mm 1 m/S 752 mmHg 100%
    09:00 +5°C° 0 mm 1 m/S 752 mmHg 99%
    10:00 +6°C° 0 mm 1 m/S 752 mmHg 98%
    11:00 +5°C° 0 mm 2 m/S 752 mmHg 97%
    12:00 +6°C° 0 mm 2 m/S 752 mmHg 96%
    13:00 +7°C° 0 mm 2 m/S 751 mmHg 95%
    14:00 +7°C° 0 mm 2 m/S 751 mmHg 96%
    15:00 +7°C° 0 mm 0 m/S 751 mmHg 96%
    16:00 +8°C° 0 mm 1 m/S 750 mmHg 97%
    17:00 +6°C° 0 mm 2 m/S 750 mmHg 98%
    18:00 +6°C° 0 mm 2 m/S 750 mmHg 100%
    19:00 +6°C° 0.1 mm 1 m/S 750 mmHg 100%
    20:00 +6°C° 0 mm 1 m/S 750 mmHg 100%
    21:00 +5°C° 0.1 mm 0 m/S 749 mmHg 100%
    22:00 +5°C° 0.3 mm 0 m/S 749 mmHg 100%
    23:00 +6°C° 0.2 mm 1 m/S 749 mmHg 100%

    übermorgen, 28 Januar, Dienstag

    Zeit Temperatur Niederschläge Wind Luftdruck Luftfeuchtigkeit
    00:00 +6°C° 0.2 mm 1 m/S 749 mmHg 100%
    01:00 +6°C° 0.2 mm 1 m/S 749 mmHg 100%
    02:00 +6°C° 0.2 mm 1 m/S 749 mmHg 100%
    03:00 +4°C° 0.1 mm 0 m/S 749 mmHg 100%
    04:00 +4°C° 0 mm 0 m/S 748 mmHg 100%
    05:00 +5°C° 0.2 mm 1 m/S 748 mmHg 100%
    06:00 +5°C° 0.3 mm 1 m/S 748 mmHg 100%
    07:00 +5°C° 0.3 mm 1 m/S 748 mmHg 100%
    08:00 +4°C° 0 mm 0 m/S 748 mmHg 100%
    09:00 +5°C° 0 mm 1 m/S 747 mmHg 100%
    10:00 +5°C° 0 mm 1 m/S 747 mmHg 99%
    11:00 +5°C° 0 mm 2 m/S 747 mmHg 95%
    12:00 +5°C° 0 mm 3 m/S 746 mmHg 91%
    13:00 +5°C° 0 mm 3 m/S 745 mmHg 92%
    14:00 +5°C° 0 mm 4 m/S 745 mmHg 92%
    15:00 +6°C° 0 mm 4 m/S 744 mmHg 90%
    16:00 +6°C° 0 mm 5 m/S 743 mmHg 91%
    17:00 +5°C° 0.4 mm 5 m/S 742 mmHg 97%
    18:00 +4°C° 2.1 mm 6 m/S 742 mmHg 100%
    19:00 +4°C° 2 mm 7 m/S 741 mmHg 99%
    20:00 +4°C° 1.4 mm 7 m/S 740 mmHg 99%
    21:00 +4°C° 0.5 mm 6 m/S 740 mmHg 100%
    22:00 +4°C° 0.9 mm 6 m/S 739 mmHg 100%
    23:00 +4°C° 1.4 mm 7 m/S 738 mmHg 99%

    29 Januar, Mittwoch

    Zeit Temperatur Niederschläge Wind Luftdruck Luftfeuchtigkeit
    00:00 +2°C° 2.4 mm 8 m/S 737 mmHg 99%
    01:00 +2°C° 2.8 mm 8 m/S 735 mmHg 99%
    02:00 +2°C° 0.8 mm 8 m/S 734 mmHg 99%
    03:00 +2°C° 0.1 mm 8 m/S 733 mmHg 99%
    04:00 +3°C° 0.2 mm 7 m/S 733 mmHg 100%
    05:00 +1°C° 0.6 mm 8 m/S 734 mmHg 99%
    06:00 0°C° 1.1 mm 10 m/S 735 mmHg 99%
    07:00 -1°C° 0.9 mm 8 m/S 737 mmHg 99%
    08:00 -1°C° 1.1 mm 6 m/S 738 mmHg 99%
    09:00 0°C° 0 mm 7 m/S 739 mmHg 92%
    10:00 -1°C° 0 mm 8 m/S 739 mmHg 89%
    11:00 0°C° 0 mm 8 m/S 740 mmHg 91%
    12:00 0°C° 0 mm 8 m/S 741 mmHg 93%
    13:00 +2°C° 0 mm 7 m/S 740 mmHg 92%
    14:00 +2°C° 0 mm 6 m/S 740 mmHg 93%

    30 Januar, Donnerstag

    Zeit Temperatur Niederschläge Wind Luftdruck Luftfeuchtigkeit

    31 Januar, Freitag

    Zeit Temperatur Niederschläge Wind Luftdruck Luftfeuchtigkeit
    Mehr zeigen